Regional Weather Roundup
Issued by NWS

Home | Current Version | Previous Version | Text Only | Print | Product List | Glossary Off
Versions: 1 2 3 4 5 6 7 8 9 10 11 12 13 14 15 16 17 18 19 20 21 22 23 24 25 26 27 28 29 30 31 32 33 34 35 36 37 38 39 40 41 42 43 44 45 46 47 48 49 50

000
ASUS43 KLOT 230004
RWRIL

ILLINOIS REGIONAL WEATHER ROUNDUP
NATIONAL WEATHER SERVICE CHICAGO/ROMEOVILLE IL
700 PM CDT MON MAY 22 2017

NOTE: "FAIR" INDICATES FEW OR NO CLOUDS BELOW 12,000 FEET WITH NO
SIGNIFICANT WEATHER AND/OR OBSTRUCTIONS TO VISIBILITY.

* THESE STATIONS ARE NOT UNDER NWS QUALITY CONTROL. THEY ALSO MAY NOT
  REPORT WEATHER SUCH AS PRECIPITATION OR FOG.

ILZ001-002-007-009-015-016-024-230100-
NORTHWEST ILLINOIS

CITY           SKY/WX    TMP DP  RH WIND       PRES   REMARKS
MOLINE         MOSUNNY   64  54  69 S13G22    29.87F
6HR MIN TEMP:  64; 6HR MAX TEMP:  72; 6HR PCP: TRACE;

STERLING*      CLOUDY    63  54  72 VRB6      29.88F
$$

ILZ003-004-008-010-011-017-018-230100-
NORTH CENTRAL ILLINOIS

CITY           SKY/WX    TMP DP  RH WIND       PRES   REMARKS
ROCKFORD       CLOUDY    66  53  63 SW17G24   29.89S
6HR MIN TEMP:  66; 6HR MAX TEMP:  71; 6HR PCP: TRACE;

FREEPORT*      CLOUDY    63  55  74 SW14      29.88F
ROCHELLE*      CLOUDY    64  55  72 SW20      29.90S
DE KALB*       MOSUNNY   64  55  73 SW16G23   29.91S
$$

ILZ005-006-012>014-019>023-230100-
NORTHEAST ILLINOIS

CITY           SKY/WX    TMP DP  RH WIND       PRES   REMARKS
CHICAGO-OHARE  CLOUDY    68  51  54 SW16G30   29.90S
6HR MIN TEMP:  68; 6HR MAX TEMP:  73;

CHICAGO-MIDWAY CLOUDY    68  51  54 SW13G23   29.92R
6HR MIN TEMP:  68; 6HR MAX TEMP:  75;

AURORA         CLOUDY    66  54  65 S18G28    29.92R
6HR MIN TEMP:  66; 6HR MAX TEMP:  75;

LANSING*       CLOUDY    69  47  45 SW13      29.93R
WAUKEGAN       CLOUDY    68  51  54 SW22G31   29.87F
6HR MIN TEMP:  67; 6HR MAX TEMP:  71;

DUPAGE AIRPORT CLOUDY    64  56  75 SW18      29.91S
6HR MIN TEMP:  64; 6HR MAX TEMP:  72; 6HR PCP:  0.01;

WHEELING       CLOUDY    68  52  56 SW15G24   29.91R
6HR MIN TEMP:  68; 6HR MAX TEMP:  73;

MORRIS*        CLOUDY    64  55  73 SW15G25   29.93S
NORTHERLY ISL    N/A     69  44  40 SW16        N/A
$$

LMZ740>746-230100-
SOUTHERN LAKE MICHIGAN

STATION/POSITION SKY/WX   TEMP    WIND        PRES    VSBY  WAVE
                          AIR SEA DIR/SP/G                  HT/PER
                          (F)     (DEG/KT/KT) (MB)    (MI)  (FT/S)
SOUTHERN BUOY              50 45  130/  8/ 10 1012.4          1/ 3
WILMETTE HARBOR            65 54                N/A           2/ 2
HARRISON CRIB              70     220/ 17/ 18   N/A
BURNHAM HARBOR             69     260/ 14/ 16   N/A
CALUMET HARBOR             69     210/  7/ 12 1012.2F
BURNS HARBOR               70     210/ 13/ 22 1013.5S
MICHIGAN CITY              69     190/ 17/ 18   N/A
MICHIGAN CITY 6N           64 53  210/ 16/ 21   N/A           2/ 3
ST. JOSEPH                 63 55  210/ 12/ 16 1013.0F         1
$$

ILZ025>027-034>036-040-047-049-050-058-095>099-230100-
WEST-CENTRAL ILLINOIS

CITY           SKY/WX    TMP DP  RH WIND       PRES   REMARKS
QUINCY         LGT RAIN  60  58  92 S5        29.95F
GALESBURG*     CLOUDY    60  56  88 S13       29.91F
MACOMB*        LGT RAIN  60  57  89 S7        29.96F
$$

ILZ028>032-037-038-041>044-048-051>054-059>061-230100-
CENTRAL ILLINOIS

CITY           SKY/WX    TMP DP  RH WIND       PRES   REMARKS
BLOOMINGTON    LGT RAIN  60  54  80 W13       30.00S
DECATUR        CLOUDY    68  47  46 SW7       29.98S
PEORIA         LGT RAIN  59  58  96 S12       29.97F
6HR MIN TEMP:  59; 6HR MAX TEMP:  75; 6HR PCP:  0.15;

LACON*         LGT RAIN  58  57  96 S13       29.93F
LINCOLN*       CLOUDY    62  57  85 NW6       29.99S
SPRINGFIELD    LGT RAIN  62  59  90 N8        29.99F
6HR MIN TEMP:  62; 6HR MAX TEMP:  76; 6HR PCP: TRACE;

TAYLORVILLE    NOT AVBL
$$

ILZ033-039-045-046-055>057-062-063-230100-
EAST-CENTRAL ILLINOIS

CITY           SKY/WX    TMP DP  RH WIND       PRES   REMARKS
CHAMPAIGN      CLOUDY    69  44  40 SW10      29.99S
MATTOON        SUNNY     68  45  43 SW7       29.98F
$$

ILZ079-100>102-230100-
SOUTHWEST ILLINOIS

CITY           SKY/WX    TMP DP  RH WIND       PRES   REMARKS
ALTON          MOSUNNY   70  48  46 SE6       29.96F
BELLEVILLE     CLOUDY    71  46  39 CALM      29.96F
CAHOKIA*       MOSUNNY   72  47  40 SE6       29.94F
SPARTA*        CLOUDY    71  48  43 CALM      29.97F
$$

ILZ064>066-069>071-074>076-080>082-084>086-088>090-092>094-230100-
SOUTH-CENTRAL ILLINOIS

CITY           SKY/WX    TMP DP  RH WIND       PRES   REMARKS
CARBONDALE     CLOUDY    71  51  49 SW5       29.96F
6HR MIN TEMP:  71; 6HR MAX TEMP:  75;

CAIRO*         PTSUNNY   72  47  40 CALM      29.96F
EFFINGHAM*     SUNNY     72  48  42 SW6       30.00S
MT. VERNON       N/A     71  51  49 SW5       29.97S
CENTRALIA*     MOSUNNY   73  48  40 CALM      29.96F
SALEM*         MOSUNNY   73  45  37 CALM      29.97F
$$

ILZ067-068-072-073-078-083-087-091-230100-
SOUTHEAST ILLINOIS

CITY           SKY/WX    TMP DP  RH WIND       PRES   REMARKS
LAWRENCEVILLE  SUNNY     73  46  38 S7        29.98F
FLORA*         MOSUNNY   73  49  43 S5        29.98S
FAIRFIELD*     MOSUNNY   72  48  42 CALM      29.96F
HARRISBURG*    CLOUDY    72  50  46 S5        29.97F
ROBINSON*      SUNNY     72  43  34 W6        30.00R HAZE
CARMI*         CLOUDY    72  46  39 SE7       29.97F
$$

ABBREVIATIONS USED IN REMARKS
   TC - TEMPERATURE IN CELSIUS
  WCI - WIND CHILL INDEX
   HX - HEAT INDEX
  VSB - VISIBILITY
$$





USA.gov is the U.S. government's official web portal to all federal, state and local government web resources and services.